Tracking 31027 objects as of 19-Jul-2025
HD Live streaming from Space Station
objects crossing your sky now

STARLINK-31376

Track STARLINK-31376 now!
10-day predictions


NORAD ID: 59524
Int'l Code: 2024-073P
Perigee: 433.3 km
Apogee: 450.2 km
Inclination: 43.0 °
Period: 93.3 minutes
Semi major axis: 6812 km
RCS: Unknown
Launch date: April 17, 2024
Source: United States (US)
Launch site: AIR FORCE EASTERN TEST RANGE (AFETR)
Your satellite tracking list
BELINTERSAT 1
Track 1 satellite(s)




NASA's NSSDC Master Catalog

Two Line Element Set (TLE):
1 59524U 24073P   25199.58335648  .00107144  00000-0  22728-2 0  9999
2 59524  42.9949 194.5366 0012408 113.9663 352.9652 15.43899663  5946
Source of the keplerian elements: AFSPC